GW2704 Weather Reports


time (UTC)temp
F
wind
direction
speed
knots
gust
knots
rain 1hr
in
rain 24hr
in
rain mn
in
humidity
%
barometer
mb
20260503194533 76 111 0.9 2.6 0.00 0.00 0.00 53 1015.2
20260503193532 75 64 0.9 1.7 0.00 0.00 0.00 54 1015.3
20260503192609 75 150 0.9 1.7 0.00 0.00 0.00 56 1015.5
20260503191532 75 83 0.9 4.3 0.00 0.00 0.00 55 1015.6
20260503190532 74 72 0.9 1.7 0.00 0.00 0.00 57 1015.6
20260503185702 74 50 0.9 2.6 0.00 0.00 0.00 57 1015.8
20260503184522 73 107 0.9 0.9 0.00 0.00 0.00 60 1015.8
20260503183607 73 175 0.9 1.7 0.00 0.00 0.00 60 1016.0
20260503182609 73 210 0.0 1.7 0.00 0.00 0.00 61 1016.1
20260503181553 72 81 0.0 0.9 0.00 0.00 0.00 61 1016.2
20260503180532 71 166 0.0 1.7 0.00 0.00 0.00 63 1016.2
20260503175659 71 211 0.9 1.7 0.00 0.00 0.00 64 1016.3
20260503174532 71 77 0.9 2.6 0.00 0.00 0.00 60 1016.3
20260503173552 71 133 0.0 0.9 0.00 0.00 0.00 62 1016.3
20260503172533 69 170 0.9 1.7 0.00 0.00 0.00 64 1016.6
20260503171601 67 176 0.9 2.6 0.00 0.00 0.00 68 1016.6
20260503170533 70 193 0.9 1.7 0.00 0.00 0.00 65 1016.6
20260503150521 62 0.0 0.0 0.00 0.00 0.00 78 1017.1
20260503130532 47 0.0 0.0 0.00 0.00 0.00 96 1016.8
20260503110612 49 0.0 0.0 0.00 0.00 0.00 95 1016.9
20260503081549 52 0.0 0.0 0.00 0.00 0.00 90 1017.0
20260503080554 52 56 0.0 0.9 0.00 0.00 0.00 91 1017.0
20260503072610 53 0.0 0.0 0.00 0.00 0.00 88 1016.8
20260503071529 54 0.0 0.0 0.00 0.00 0.00 88 1016.7
20260503070554 54 0.0 0.0 0.00 0.00 0.00 87 1016.8
20260503054553 57 0.0 0.0 0.00 0.00 0.00 80 1016.6
20260503053658 58 0.0 0.0 0.00 0.00 0.00 79 1016.6
20260503052533 58 0.0 0.0 0.00 0.00 0.00 79 1016.6
20260503051602 58 0.0 0.0 0.00 0.00 0.00 79 1016.6
20260503050522 58 0.0 0.0 0.00 0.00 0.00 77 1016.5
20260503045546 59 0.0 0.0 0.00 0.00 0.00 76 1016.5
20260503044610 60 0.0 0.0 0.00 0.00 0.00 74 1016.4
20260503043530 60 0.0 0.0 0.00 0.00 0.00 72 1016.2
20260503042614 61 0.0 0.0 0.00 0.00 0.00 72 1016.1
20260503041618 62 0.0 0.0 0.00 0.00 0.00 70 1016.0
20260503040532 62 0.0 0.0 0.00 0.00 0.00 68 1015.9
20260503035545 63 0.0 0.0 0.00 0.00 0.00 66 1015.8
20260503034609 63 0.0 0.0 0.00 0.00 0.00 66 1015.6
20260503033532 64 0.0 0.0 0.00 0.00 0.00 64 1015.6
20260503032553 65 0.0 0.0 0.00 0.00 0.00 62 1015.4
20260503031618 66 0.0 0.0 0.00 0.00 0.00 61 1015.2
20260503030745 67 69 0.0 0.9 0.00 0.00 0.00 58 1015.2
20260503025533 68 0.0 0.0 0.00 0.00 0.00 57 1015.1
20260503024553 68 69 0.0 0.9 0.00 0.00 0.00 57 1015.1
20260503023532 68 34 0.9 2.6 0.00 0.00 0.00 56 1015.0
20260503022533 69 34 0.0 0.9 0.00 0.00 0.00 55 1014.9
20260503021602 70 57 0.0 0.9 0.00 0.00 0.00 55 1015.0
20260503020533 71 105 0.0 0.9 0.00 0.00 0.00 54 1015.1
20260503015530 73 178 0.0 0.9 0.00 0.00 0.00 53 1015.1
20260503014614 73 199 0.9 1.7 0.00 0.00 0.00 53 1015.1
20260503013533 73 64 0.9 1.7 0.00 0.00 0.00 53 1015.2
20260503012522 74 215 0.9 1.7 0.00 0.00 0.00 54 1015.2
20260503011546 74 217 0.9 1.7 0.00 0.00 0.00 55 1015.3
20260503010533 74 210 0.9 5.2 0.00 0.00 0.00 53 1015.3
20260503005530 74 235 0.0 1.7 0.00 0.00 0.00 54 1015.3
20260503004554 74 59 0.9 4.3 0.00 0.00 0.00 52 1015.4
20260503003533 74 111 0.0 0.9 0.00 0.00 0.00 54 1015.4
20260503002532 74 53 0.9 1.7 0.00 0.00 0.00 53 1015.4
20260503001600 73 17 0.9 2.6 0.00 0.00 0.00 54 1015.5
20260503000533 74 21 1.7 2.6 0.00 0.00 0.00 54 1015.6
20260502235533 74 180 0.9 4.3 0.00 0.00 0.00 56 1015.6
20260502234610 74 241 0.9 1.7 0.00 0.00 0.00 56 1015.8
20260502233533 74 109 0.9 1.7 0.00 0.00 0.00 58 1015.9
20260502232613 74 320 0.9 2.6 0.00 0.00 0.00 57 1016.1
20260502231622 73 55 0.9 2.6 0.00 0.00 0.00 57 1016.2
20260502230532 73 74 1.7 4.3 0.00 0.00 0.00 58 1016.3
20260502225533 72 137 0.9 1.7 0.00 0.00 0.00 60 1016.5
20260502224610 72 48 1.7 4.3 0.00 0.00 0.00 60 1016.6
20260502223533 71 28 0.9 1.7 0.00 0.00 0.00 62 1016.6
20260502222533 71 114 0.9 2.6 0.00 0.00 0.00 61 1016.8
20260502221533 71 230 1.7 5.2 0.00 0.00 0.00 62 1017.0
20260502220532 71 82 0.9 2.6 0.00 0.00 0.00 61 1017.1
20260502215618 71 30 0.9 1.7 0.00 0.00 0.00 61 1017.3
20260502214538 71 80 0.9 1.7 0.00 0.00 0.00 61 1017.4
20260502213533 71 25 0.9 1.7 0.00 0.00 0.00 62 1017.4
20260502212522 71 166 0.9 0.9 0.00 0.00 0.00 63 1017.6
20260502211546 71 112 0.9 4.3 0.00 0.00 0.00 61 1017.7
20260502210532 71 117 0.9 2.6 0.00 0.00 0.00 62 1017.7
20260502205530 70 107 0.9 1.7 0.00 0.00 0.00 64 1017.8
20260502204554 70 127 0.9 1.7 0.00 0.00 0.00 64 1017.8
20260502203532 70 126 0.9 2.6 0.00 0.00 0.00 64 1017.9
20260502202522 70 24 0.9 1.7 0.00 0.00 0.00 65 1018.1
20260502201546 68 67 0.9 2.6 0.00 0.00 0.00 68 1018.3
20260502200532 68 199 0.9 4.3 0.00 0.00 0.00 70 1018.5
20260502195530 67 208 1.7 2.6 0.00 0.00 0.00 73 1018.5